DELTA 1 DEB, 7085

Orbit data source: Space-Track

DELTA 1 DEB, 7085 is space debris in SSO originally from a launch on Tue, 06 Nov 1973 UTC launched from the Air Force Western Test Range (AFWTR). Debris objects in space refer to the collection of defunct objects orbiting the Earth. Examples of debris include non-operational satellites, rocket bodies, and fragments generated from explosions, collisions, or faulty payload assembly.

Loading next visibility...
Identifier
7085, 1973-086CD
Orbit
SSO
Country
Flag of USUS
Related business
Manufacturer
Unknown
Mission
Spacecraft
Bus & Motor
Unknown
Mass
Unknown
Launch date (UTC)
1973-11-06 (53 years ago)
Launch vehicle
Unknown
Launch site
Air Force Western Test Range (AFWTR)
Object type
Payload
Rocket body
Debris
Shape & HBR
Unknown shape, 0.1 m
Radar Cross Section
Medium (>0.1 m² and <1 m²)

Expand to show TLE details & history
Last TLE update: 9 hours ago

TLE from 9 hours ago
0 DELTA 1 DEB
1  7085U 73086CD  26237.37530023  .00000054  00000-0  57559-3 0  9990
2  7085 102.1802  39.2607 0098044  79.4870 311.6439 12.60295484424854
Epoch: 2026-08-25T09:00Z
TLE epoch observation values (Epoch: 2026-08-25T09:00:25.939Z)
Latitude
29.58272°
Longitude
-76.49402°
Altitude
1,374.718 km
Speed
7.197 km/s
True Right ascension
02h 09m 01s
True Declination
29° 26' 49"
Sunlit
Object was in daylight at epoch
Visualization orbit readout
Latitude
Unknown
Longitude
Unknown
Altitude
Unknown
Speed
Unknown
Apparent Right ascension
Unknown
Apparent Declination
Unknown
Sunlit
N/A
Visualization observer readout
Local Sidereal Time
08:54:14
Azimuth
Unknown
Elevation
Unknown
Doppler factor
Unknown
Orbital elements
Apogee altitude
1,495.733 km
Perigee altitude
1,342.835 km
Semi-major axis
7,797.421 km
Eccentricity
0.0098
Inclination
102.1802°
RAAN
39.2607°
Arg. of periapsis
79.487°
True anomaly
310.79746°
Mean anomaly
311.6439°
Eccentric anomaly
311.22137°
Mean motion
3.15222 °/min
Orbital period
114.21 mins
BSTAR
0.00057559
Loading maneuver chart data...
Computing Atmospheric mass density...
Loading historical data...
Loading historical data...
Loading historical data...
Loading historical data...
Loading historical data...
Loading historical data...
Loading historical data...

Documentation

Showing up to 5 results
|